This demonstration page uses our WeatherBlox Daily Observations layout. Learn more.

Hourly Observations for January 12, 2020

Temp ( °F °C ) Dew Point ( °F °C ) Humidity (%) Winds ( mph kmh ) Pressure ( in mb ) Visibility ( mi km ) Precip ( " mm )
12:15 am 00:15 Cloudy 36 2 36 2 100 100 W 15 24 29.94 1014 7 11.26538 N/A
12:35 am 00:35 Cloudy 34 1 34 1 100 100 W 17 28 29.96 1015 7 11.26538 N/A
12:56 am 00:56 Cloudy 34 1 34 1 100 100 W 16 26 29.98 1015 7 11.26538 N/A
1:15 am 01:15 Cloudy 34 1 34 1 100 100 W 17 28 30.02 1017 7 11.26538 N/A
1:35 am 01:35 Cloudy 34 1 34 1 100 100 W 15 24 30.05 1018 5 8.0467 N/A
1:56 am 01:56 Cloudy 34 1 34 1 100 100 W 16 26 30.08 1019 5 8.0467 N/A
2:15 am 02:15 Cloudy 34 1 34 1 100 100 WNW 14 22 30.07 1018 7 11.26538 N/A
2:35 am 02:35 Cloudy 34 1 34 1 100 100 WNW 12 19 30.08 1019 10 16.0934 N/A
2:55 am 02:55 Cloudy 34 1 34 1 100 100 W 14 22 30.12 1020 10 16.0934 N/A
3:15 am 03:15 Cloudy 34 1 34 1 100 100 WNW 15 24 30.12 1020 10 16.0934 N/A
3:36 am 03:36 Cloudy 34 1 34 1 100 100 WNW 13 20 30.14 1021 10 16.0934 N/A
3:56 am 03:56 Cloudy 34 1 34 1 100 100 WNW 10 17 30.18 1022 10 16.0934 N/A
4:16 am 04:16 Cloudy 32 0 32 0 100 100 WNW 9 15 30.18 1022 10 16.0934 N/A
4:36 am 04:36 Cloudy 32 0 32 0 100 100 WNW 12 19 30.2 1023 10 16.0934 N/A
4:55 am 04:55 Cloudy 32 0 32 0 100 100 WNW 13 20 30.22 1023 10 16.0934 N/A
5:15 am 05:15 Cloudy 32 0 32 0 100 100 WNW 9 15 30.22 1023 10 16.0934 N/A
5:35 am 05:35 Cloudy 32 0 32 0 100 100 W 9 15 30.24 1024 10 16.0934 N/A
5:55 am 05:55 Cloudy 32 0 32 0 100 100 W 7 11 30.25 1024 10 16.0934 N/A
6:16 am 06:16 Cloudy 32 0 32 0 100 100 WNW 8 13 30.26 1025 10 16.0934 N/A
6:36 am 06:36 Cloudy 32 0 32 0 100 100 WNW 10 17 30.28 1025 10 16.0934 N/A
6:56 am 06:56 Cloudy 32 0 32 0 100 100 WNW 7 11 30.29 1026 10 16.0934 N/A
7:16 am 07:16 Cloudy 32 0 32 0 100 100 WNW 6 9 30.3 1026 10 16.0934 N/A
7:35 am 07:35 Cloudy 32 0 32 0 100 100 WNW 7 11 30.31 1026 10 16.0934 N/A
7:55 am 07:55 Cloudy 32 0 32 0 100 100 WNW 9 15 30.31 1026 10 16.0934 N/A
8:15 am 08:15 Cloudy 32 0 32 0 100 100 WNW 6 9 30.32 1027 10 16.0934 N/A
8:35 am 08:35 Cloudy 32 0 32 0 100 100 NNW 5 7 30.32 1027 10 16.0934 N/A
8:56 am 08:56 Cloudy 32 0 32 0 100 100 NW 3 6 30.33 1027 10 16.0934 N/A
9:16 am 09:16 Cloudy 32 0 32 0 100 100 NNW 3 6 30.35 1028 10 16.0934 N/A
9:36 am 09:36 Cloudy 32 0 32 0 100 100 NW 3 6 30.36 1028 10 16.0934 N/A
9:55 am 09:55 Cloudy 32 0 32 0 100 100 Calm 30.37 1028 10 16.0934 N/A
10:15 am 10:15 Cloudy 34 1 34 1 100 100 WSW 6 9 30.37 1029 10 16.0934 N/A
10:35 am 10:35 Cloudy 34 1 32 0 93 93 W 5 7 30.38 1029 10 16.0934 N/A
10:55 am 10:55 Cloudy 34 1 32 0 93 93 Calm 30.38 1029 10 16.0934 N/A
11:15 am 11:15 Cloudy 34 1 32 0 93 93 Calm 30.39 1029 10 16.0934 N/A
11:36 am 11:36 Cloudy 34 1 34 1 100 100 S 5 7 30.38 1029 10 16.0934 N/A
11:56 am 11:56 Cloudy 34 1 34 1 100 100 SE 5 7 30.36 1028 10 16.0934 N/A
12:16 pm 12:16 Cloudy 34 1 34 1 100 100 SE 3 6 30.36 1028 10 16.0934 N/A
12:35 pm 12:35 Cloudy 34 1 34 1 100 100 SE 5 7 30.35 1028 10 16.0934 N/A
12:56 pm 12:56 Cloudy 34 1 34 1 100 100 SSE 3 6 30.34 1027 10 16.0934 N/A
1:16 pm 13:16 Cloudy 36 2 34 1 93 93 SSE 5 7 30.33 1027 10 16.0934 N/A
1:36 pm 13:36 Cloudy 36 2 36 2 100 100 S 3 6 30.33 1027 10 16.0934 N/A
1:55 pm 13:55 Cloudy 36 2 34 1 93 93 SSE 3 6 30.32 1027 10 16.0934 N/A
2:15 pm 14:15 Cloudy 36 2 34 1 93 93 Calm 30.32 1027 10 16.0934 N/A
2:36 pm 14:36 Cloudy 36 2 34 1 93 93 Calm 30.34 1027 10 16.0934 N/A
2:56 pm 14:56 Cloudy 36 2 36 2 100 100 SE 5 7 30.31 1026 10 16.0934 N/A
3:16 pm 15:16 Cloudy 36 2 36 2 100 100 SE 6 9 30.31 1026 10 16.0934 N/A
3:36 pm 15:36 Cloudy 36 2 36 2 100 100 SE 6 9 30.29 1026 10 16.0934 N/A
3:55 pm 15:55 Cloudy 36 2 36 2 100 100 SSE 6 9 30.3 1026 10 16.0934 N/A
4:16 pm 16:16 Cloudy 36 2 36 2 100 100 S 6 9 30.3 1026 10 16.0934 N/A
4:35 pm 16:35 Cloudy 36 2 36 2 100 100 S 7 11 30.31 1026 10 16.0934 N/A
4:56 pm 16:56 Cloudy 36 2 36 2 100 100 S 7 11 30.31 1026 10 16.0934 N/A
5:16 pm 17:16 Cloudy 36 2 36 2 100 100 S 8 13 30.31 1026 10 16.0934 N/A
5:36 pm 17:36 Cloudy 36 2 36 2 100 100 S 6 9 30.31 1026 10 16.0934 N/A
6:15 pm 18:15 Cloudy 36 2 36 2 100 100 S 6 9 30.32 1027 10 16.0934 N/A
6:36 pm 18:36 Cloudy 36 2 36 2 100 100 SSE 6 9 30.31 1026 10 16.0934 N/A
6:55 pm 18:55 Cloudy 36 2 36 2 100 100 SSE 5 7 30.31 1026 10 16.0934 N/A
7:15 pm 19:15 Cloudy 36 2 36 2 100 100 SSE 6 9 30.3 1026 10 16.0934 N/A
7:35 pm 19:35 Cloudy 36 2 36 2 100 100 SSE 5 7 30.29 1026 7 11.26538 N/A
7:56 pm 19:56 Cloudy 36 2 36 2 100 100 SSE 3 6 30.3 1026 5 8.0467 N/A
8:16 pm 20:16 Cloudy 36 2 36 2 100 100 SSE 6 9 30.29 1026 5 8.0467 N/A
8:36 pm 20:36 Cloudy 36 2 36 2 100 100 SSE 3 6 30.28 1025 4 6.43736 N/A
8:56 pm 20:56 Cloudy 36 2 36 2 100 100 Calm 30.28 1025 5 8.0467 N/A
9:16 pm 21:16 Cloudy 36 2 36 2 100 100 Calm 30.29 1026 5 8.0467 N/A
9:35 pm 21:35 Cloudy 36 2 36 2 100 100 Calm 30.29 1026 5 8.0467 N/A
9:56 pm 21:56 Cloudy 36 2 36 2 100 100 S 3 6 30.29 1026 3 4.82802 N/A
10:15 pm 22:15 Cloudy 36 2 36 2 100 100 SSE 3 6 30.28 1025 3 4.82802 N/A
10:36 pm 22:36 Cloudy 36 2 36 2 100 100 S 3 6 30.28 1025 4 6.43736 N/A
10:56 pm 22:56 Cloudy 36 2 36 2 100 100 SSW 3 6 30.29 1026 3 4.82802 N/A
11:16 pm 23:16 Cloudy 36 2 36 2 100 100 S 5 7 30.28 1025 5 8.0467 N/A
11:36 pm 23:36 Cloudy 36 2 36 2 100 100 SE 7 11 30.26 1025 4 6.43736 N/A
11:55 pm 23:55 Cloudy 36 2 36 2 100 100 SSE 5 7 30.26 1025 5 8.0467 N/A

Powered by AerisWeather